User: anonymous   Login
Location: Unspecified
(0.0000°N, 0.0000°E)
Time: 21:59:08
(UTC+00:00)
Language:

MINXSS - Orbit

View from above orbital plane
View from above orbital plane
View from above satellite
View from above satellite

Ground track
Ground track

The orbit data is extracted from the following two-line orbital elements,

1 41474U 98067HU  17082.90309355 +.00117604 +00000-0 +49104-3 0  9992
2 41474 051.6453 074.9709 0004500 081.4886 278.6627 15.84783039048813
Epoch (UTC): 23 March 2017 21:40:27
Eccentricity: 0.0004500
inclination: 51.6453°
perigee height: 314 km
apogee height: 320 km
right ascension of ascending node: 74.9709°
argument of perigee: 81.4886°
revolutions per day: 15.84783039
mean anomaly at epoch: 278.6627°
orbit number at epoch: 4881

The dashed part of the orbit path shows where the satellite is in the earth's shadow,  

DLR